SCP
-0 -0 -0 -0 -0 -0 -0 -0 -0 -0 -0 -0 -0 -0 -0 -0 -0 -0 -0 -0 -0 -0 -0 -0 -0 -0 -0 -0 -0 -0 -0 -0 -0 -0 -0 0 -0 -0 -0 -0 -0 -0 -0 0 0 0 0
-0 -0 -0 -0 -0 -0 -0 -0 -0 -0 -0 -0 -0 -0 -0 -0 -0 -0 -0 -0 -0 -0 -0 -0 -0 -0 -0 -0 -0 -0 -0 -0 -0 -0 -0 -0 -0 -0 -0 -0 0 -0 0 0 -0 0 -0
-0 -0 -0 -0 -0 -0 -0 -0 -0 -0 -0 -0 -0 -0 -0 -0 -0 -0 -0 -0 -0 -0 -0 -0 -0 0 -0 -0 -0 -0 -0 -0 -0 -0 -0 -0 -0 -0 0 -0 -0 -0 -0 -0 -0 -0 0
-0 -0 -0 -0 -0 -0 -0 -0 -0 -0 -0 -0 -0 -0 -0 -0 -0 -0 -0 -0 -0 -0 -0 -0 -0 -0 0 0 0 -0 -0 -0 -0 -0 0 -0 -0 -0 0 -0 -0 0 0 0 0 0 0
-0 -0 -0 -0 -0 -0 -0 -0 -0 -0 -0 -0 -0 -0 -0 -0 -0 -0 -0 -0 0 0 0 0 0 0 0 0 0 0 -0 0 0 0 -0 0 0 0 0 0 0 0 0 0 0 0 0
-0 -0 -0 -0 -0 -0 -0 -0 -0 -0 -0 -0 -0 -0 -0 -0 -0 -0 -0 -0 0 0 0 0 -0 0 0 0 0 0 0 -0 0 0 0 0 0 0 0 0 0 0 0 0 0 -0 0
-0 -0 -0 -0 -0 -0 -0 -0 -0 -0 -0 -0 -0 -0 -0 -0 -0 -0 -0 0 0 0 0 0 0 0 0 0 0 0 0 0 0 0 0 0 0 0 0 0 0 0 -0 0 -0 0 0
-0 -0 -0 -0 -0 -0 -0 -0 -0 -0 -0 -0 -0 -0 -0 -0 -0 -0 0 0 0 0 0 -0 -0 0 -0 0 0 0 0 0 0 0 0 0 0 0 -0 -0 -0 0 0 0 0 0 0
-0 -0 -0 -0 -0 -0 -0 -0 -0 -0 -0 -0 -0 -0 -0 -0 -0 -0 0 0 0 0 0 0 0 0 0 0 0 0 0 0 0 0 0 0 0 -0 0 0 0 0 0 0 0 0 0
-0 -0 -0 -0 -0 -0 -0 -0 -0 -0 -0 -0 -0 -0 -0 -0 0 0 0 0 0 0 0 0 0 0 0 0 0 -0 0 0 0 -0 0 0 0 0 -0 0 0 0 -0 0 0 0 0
0 -0 -0 -0 -0 -0 -0 -0 -0 -0 -0 -0 -0 -0 -0 0 0 0 -0 0 0 -0 0 0 0 0 0 0 0 0 -0 0 0 0 0 -0 -0 0 0 0 0 0 0 0 0 0 0
0 0 -0 -0 -0 -0 -0 -0 -0 -0 -0 -0 -0 -0 -0 0 0 -0 0 -0 -0 0 0 0 0 0 0 0 -0 0 0 0 -0 0 -0 -0 -0 -0 -0 -0 0 0 0 0 0 0 0
0 0 0 0 0 -0 -0 -0 -0 -0 -0 -0 -0 -0 0 -0 0 0 -0 0 0 0 0 0 0 0 0 0 0 0 0 0 0 0 0 0 0 0 0 0 0 0 0 0 0 0 0
0 0 0 0 0 0 0 -0 -0 -0 -0 -0 -0 -0 0 0 -0 0 0 0 0 0 0 0 0 0 0 0 0 0 0 0 0 0 0 0 0 0 0 0 0 0 0 0 0 0 0
0 0 0 0 0 0 0 0 -0 -0 -0 -0 -0 -0 0 0 0 0 0 0 0 0 0 0 0 0 0 0 0 0 0 0 -0 0 0 0 0 0 0 0 0 0 0 0 0 0 0
0 0 0 0 0 0 0 0 0 0 -0 -0 0 0 0 0 0 0 0 0 0 0 0 0 0 0 0 0 0 0 0 0 0 0 0 0 0 0 0 0 0 0 0 0 0 0 0
0 0 0 0 0 0 0 0 0 0 0 -0 -0 -0 0 0 0 0 0 0 0 0 0 0 0 0 0 0 0 0 0 0 0 0 0 0 0 0 0 0 0 0 0 1 0 0 0
0 0 0 0 0 0 0 0 0 0 0 -0 -0 0 0 0 0 0 0 0 0 0 0 0 0 0 0 0 0 0 0 0 0 0 0 0 0 0 0 0 0 0 0 0 0 0 0
0 0 0 0 0 0 0 0 0 0 -0 -0 -0 -0 0 -0 0 0 0 0 0 0 0 0 0 0 0 0 0 0 0 0 0 0 0 0 0 0 0 0 0 0 0 0 0 0 0
0 0 0 0 0 0 0 0 0 0 0 -0 -0 -0 0 0 0 0 0 0 0 0 0 0 0 0 0 0 0 0 0 0 0 0 0 0 0 0 0 0 0 0 -0 0 0 0 0
0 0 0 0 0 0 0 0 0 0 0 -0 -0 0 0 0 0 0 0 0 0 0 0 0 0 0 0 0 0 0 0 0 0 0 0 0 0 0 0 0 0 0 0 0 0 0 0
0 0 0 0 0 0 0 0 0 0 0 -0 0 0 0 0 0 0 0 0 0 0 0 0 0 0 0 0 0 0 0 0 0 0 0 0 0 0 0 0 0 0 0 0 0 0 0
0 0 0 0 0 0 0 0 0 0 0 0 0 0 0 0 0 0 0 0 0 0 0 0 0 0 0 0 0 0 0 0 0 0 0 0 0 0 0 0 0 0 0 0 0 0 0
0 0 0 0 0 0 0 0 0 0 0 0 0 0 0 0 0 0 0 0 0 0 0 0 0 0 0 0 0 0 0 0 0 0 0 0 0 0 0 0 0 0 0 0 0 0 0
0 0 0 0 0 0 0 0 0 0 0 0 0 0 0 0 0 0 0 0 0 0 0 0 0 0 0 0 0 0 0 0 0 0 0 0 0 0 0 0 0 0 0 0 0 0 0
0 0 0 0 0 0 0 0 0 0 0 0 0 0 0 0 0 0 0 0 0 0 0 0 0 0 0 0 0 0 0 0 0 0 0 0 0 0 0 0 0 0 0 0 0 0 0
0 0 0 0 0 0 0 0 0 0 0 0 0 0 0 0 0 0 0 0 0 0 0 0 0 0 0 0 0 0 0 0 0 0 0 0 0 0 0 0 0 0 0 0 0 0 0
0 0 0 0 0 0 0 0 0 0 0 0 0 0 0 0 0 0 0 0 0 0 0 0 0 0 0 0 0 0 0 0 0 -0 0 0 0 0 0 0 0 0 0 0 0 0 0
0 0 0 0 0 0 0 0 0 0 0 0 0 0 0 0 0 0 -0 0 0 0 0 0 0 0 0 0 0 0 0 0 0 0 0 0 0 0 0 0 0 0 0 0 0 0 0
Wind_Speed_500mb
52 51 49 47 46 46 47 48 47 44 41 38 34 29 26 23 18 15 13 12 11 11 10 8 10 10 10 14 20 10 10 18 24 30 26 25 30 29 30 35 35 30 38 42 40 31 39
52 51 49 49 48 48 50 51 50 48 44 41 37 33 26 22 19 15 13 10 7 9 8 8 10 11 12 25 1 10 11 16 22 26 23 27 22 26 37 31 33 34 29 38 49 32 40
51 51 50 51 50 50 52 53 53 53 49 44 40 36 28 22 17 13 9 7 1 7 8 9 11 11 18 31 6 12 27 22 25 22 24 22 27 22 26 32 29 36 33 30 37 36 36
49 50 52 52 52 52 53 55 57 58 55 46 41 37 29 23 16 9 4 4 1 4 7 9 10 11 18 8 17 21 25 24 23 24 25 18 21 27 36 36 45 23 31 33 33 45 44
46 49 52 53 53 53 55 56 58 61 61 49 43 37 30 22 13 6 3 2 1 4 7 9 9 9 22 18 22 27 30 28 24 24 26 21 20 29 32 29 26 28 29 38 40 42 37
47 47 51 53 53 54 56 58 60 62 64 54 47 38 31 21 10 6 4 5 5 5 8 12 15 17 27 19 16 27 29 30 27 22 27 26 21 26 27 26 29 32 34 30 34 31 21
49 50 51 52 53 54 57 59 60 62 63 58 49 42 29 18 15 12 10 13 6 6 21 25 19 23 4 9 10 16 30 28 31 26 28 36 24 28 35 36 39 33 40 37 40 32 24
50 51 51 52 53 54 57 60 60 61 61 58 47 40 24 19 17 15 15 10 10 15 24 37 41 39 32 15 20 22 28 33 36 31 35 29 36 33 36 38 40 38 33 34 36 43 38
50 51 51 51 52 55 57 60 61 61 60 57 50 36 19 11 7 7 7 14 16 18 16 22 19 22 15 27 35 27 31 38 35 35 36 37 36 40 46 28 33 36 33 35 41 43 41
51 52 52 52 52 54 57 60 62 63 60 57 50 40 27 11 10 11 10 22 18 12 10 23 18 15 15 15 19 31 34 32 36 40 36 34 41 42 41 32 29 36 40 36 42 37 29
52 53 53 53 54 55 58 61 63 64 61 55 50 41 27 21 10 17 22 24 17 9 10 27 23 11 6 22 5 25 30 38 34 37 35 40 39 40 39 39 36 41 33 39 41 38 35
52 54 54 54 55 58 60 63 66 68 65 58 49 42 25 15 14 19 26 23 12 11 11 13 13 11 27 26 22 11 12 32 34 38 40 43 55 46 44 39 35 33 40 37 37 34 34
51 54 55 54 55 57 61 64 67 70 69 62 50 40 24 10 8 26 23 13 12 13 6 10 5 3 13 17 12 17 21 24 24 27 30 40 43 44 49 44 40 35 35 24 32 30 33
50 53 55 55 55 57 61 65 68 71 72 70 53 31 18 10 14 24 16 15 16 20 2 12 3 15 22 25 21 26 16 28 27 36 30 28 33 26 15 30 26 40 28 11 19 31 32
51 54 56 56 57 59 62 67 71 73 75 74 60 21 13 2 16 19 18 14 20 18 12 13 18 23 29 30 17 24 26 24 28 21 8 19 32 22 17 19 22 19 25 29 12 38 32
53 56 56 56 57 59 62 68 75 75 76 70 59 25 0 6 21 18 14 24 39 5 10 15 21 19 25 29 19 22 22 18 19 13 6 16 34 22 10 15 22 21 16 16 7 7 11
55 57 57 57 57 59 62 67 74 80 75 66 34 22 2 19 21 22 18 30 11 17 8 12 20 28 31 25 25 32 27 28 5 4 10 12 19 35 35 29 29 21 11 6 6 10 8
56 57 57 56 56 58 61 66 71 78 80 64 24 14 27 23 20 22 22 6 13 18 21 15 17 24 29 32 34 33 28 29 14 3 12 4 8 21 29 31 31 4 8 2 8 5 6
58 57 56 56 56 59 62 66 68 64 65 69 31 26 5 19 11 18 30 18 25 22 24 18 22 20 22 29 30 27 23 8 6 3 7 14 9 19 28 34 14 12 13 20 6 6 17
58 55 55 56 56 58 62 66 62 53 47 43 17 10 21 28 8 14 24 26 29 32 33 21 31 38 31 33 27 25 31 10 12 2 17 11 18 24 25 33 11 15 25 19 25 15 17
56 55 55 55 56 58 62 62 57 48 32 26 11 12 18 13 24 38 31 28 38 38 43 32 25 26 32 33 31 35 35 33 20 22 10 10 22 27 30 33 33 31 25 26 33 33 30
57 57 56 55 57 60 59 54 50 43 26 14 20 18 30 44 42 34 23 28 35 34 34 31 31 28 34 36 31 36 36 31 29 32 26 23 19 24 33 34 29 32 36 37 38 38 43
54 53 52 54 57 55 50 46 42 37 24 12 20 27 25 22 33 28 27 30 27 36 29 29 30 33 34 25 31 40 37 31 21 18 25 22 22 22 28 33 34 26 33 28 33 38 28
51 50 53 54 54 50 45 42 38 31 23 16 19 28 28 23 29 28 43 45 34 35 39 45 42 39 32 36 34 44 42 34 31 26 26 19 23 18 23 26 32 31 33 16 22 26 25
50 50 48 44 44 44 42 41 36 27 21 19 18 26 29 22 38 42 42 38 41 41 38 47 47 49 49 43 23 23 27 34 40 41 36 29 23 19 17 20 30 34 16 10 11 9 11
46 43 41 38 34 37 37 34 35 26 20 15 15 24 29 32 26 34 42 41 30 29 31 47 45 40 33 23 20 36 30 34 32 45 43 38 29 21 19 7 14 14 10 4 6 12 8
42 41 38 35 31 29 32 22 28 31 22 21 20 25 23 40 45 38 35 28 41 33 21 43 22 27 20 18 24 30 34 40 40 33 16 30 26 30 25 23 16 28 21 12 18 5 15
40 38 36 34 30 27 26 23 22 27 25 22 23 22 26 33 49 58 42 46 44 43 27 40 31 18 19 24 20 27 29 32 34 40 29 27 21 27 29 32 32 9 18 16 17 16 8
40 38 36 35 34 30 28 29 29 26 28 29 28 22 26 30 42 56 58 55 53 45 42 31 32 39 7 9 11 13 21 15 28 26 20 19 14 11 10 5 17 18 27 10 10 1 8
Wind_Direction_500mb
24 23 24 24 23 21 17 13 10 5 3 358 352 342 338 339 330 317 315 303 280 257 252 254 226 227 259 261 261 220 189 190 186 185 213 219 226 230 236 245 239 244 252 264 270 267 278
22 25 26 25 23 21 17 15 11 6 1 356 353 345 335 334 332 321 318 317 288 220 219 222 215 221 242 257 258 212 195 201 188 193 216 215 225 230 269 287 270 254 247 256 267 260 262
25 26 25 23 24 23 18 17 14 9 2 357 353 349 341 331 331 324 322 336 317 187 201 204 206 219 255 245 214 241 186 195 190 207 218 223 254 289 262 267 264 271 270 271 264 261 257
26 25 23 23 24 23 20 18 16 12 7 3 357 353 349 341 331 320 325 345 70 179 197 197 203 224 256 202 223 212 197 205 213 220 231 245 259 267 275 277 286 266 266 265 259 242 234
22 22 22 24 25 23 19 18 15 13 12 10 4 358 355 350 341 336 347 7 318 237 215 203 199 238 259 230 223 211 208 212 216 228 235 249 266 255 262 253 261 255 255 256 257 247 230
21 21 20 22 24 21 18 17 15 13 14 13 10 5 1 2 21 38 15 341 306 257 211 211 222 245 244 249 209 207 209 215 219 229 234 235 253 245 245 251 249 258 246 246 245 274 188
22 21 20 20 21 20 17 15 15 13 13 13 13 10 13 34 48 43 3 330 311 225 218 235 286 235 136 216 177 214 208 212 219 223 231 230 243 244 250 245 249 263 276 292 293 299 259
19 18 17 17 16 16 14 12 12 12 11 11 10 14 33 43 57 39 20 317 9 323 290 254 250 252 261 235 230 220 200 211 222 227 221 241 238 249 266 272 278 275 284 283 276 282 285
15 13 13 13 12 11 10 8 8 9 7 4 5 6 11 34 58 29 7 357 330 320 269 251 221 230 225 222 237 242 194 215 226 228 246 245 251 248 238 251 268 277 265 274 278 287 274
11 9 9 8 7 6 5 5 4 4 4 1 355 354 352 324 345 335 311 337 331 313 273 180 194 191 198 215 223 226 207 220 230 250 240 251 257 252 268 242 246 272 283 250 264 267 270
8 6 5 4 2 2 1 1 1 1 360 358 351 344 347 351 343 3 327 329 315 297 271 163 136 134 209 228 74 198 226 212 242 247 246 262 270 258 252 256 281 274 269 284 280 279 249
4 3 2 1 359 357 358 358 358 358 356 354 349 339 332 334 305 319 323 316 311 237 238 141 141 205 196 210 244 176 223 235 255 249 259 273 278 278 283 288 263 263 260 262 278 265 263
360 360 359 358 357 355 355 355 356 356 354 351 347 336 318 290 315 324 320 298 245 243 121 164 170 224 292 284 218 240 255 211 235 247 248 255 255 254 259 260 270 264 276 257 251 243 247
355 356 356 355 354 354 353 352 353 355 354 349 348 336 340 280 314 321 324 264 254 299 22 100 317 269 262 273 262 269 249 270 244 231 251 280 288 319 308 281 271 289 298 332 296 288 277
353 353 353 353 352 352 352 351 351 353 355 349 350 350 298 250 320 326 299 247 245 344 20 358 319 279 264 251 208 290 263 263 286 18 252 286 277 9 11 351 343 309 269 308 324 283 296
349 350 350 350 350 350 351 351 350 351 354 354 345 359 209 276 323 316 272 259 291 61 358 307 281 303 290 297 224 206 263 288 263 160 252 289 295 284 283 242 263 254 352 318 286 0 247
346 346 347 347 348 349 350 351 351 348 353 355 352 314 26 328 305 270 253 269 331 68 21 310 288 285 290 283 288 292 296 286 167 256 195 280 287 284 292 274 303 301 278 340 286 286 303
343 343 343 344 345 346 347 350 352 349 349 360 353 306 338 341 296 241 251 15 353 311 300 248 282 281 282 292 293 286 276 278 68 10 278 45 317 291 283 307 308 287 293 80 268 233 163
340 341 341 341 342 343 345 347 351 353 352 347 326 300 255 348 317 337 345 328 317 293 286 277 272 266 281 283 286 276 279 260 114 266 24 352 244 276 273 258 36 353 291 224 194 64 255
336 337 338 338 339 340 341 343 347 354 350 343 312 313 345 327 218 338 339 313 298 300 289 268 291 286 283 277 264 269 272 243 186 119 74 25 278 264 268 285 163 221 221 240 193 208 254
332 333 333 333 334 336 338 340 345 351 354 342 296 332 340 300 318 331 305 292 289 288 284 268 258 275 269 270 263 265 264 247 184 150 183 191 250 262 267 271 270 278 281 261 227 231 242
329 329 329 329 330 332 335 339 344 350 6 335 329 342 324 299 289 286 282 279 281 286 294 288 291 285 279 277 269 266 276 275 257 180 199 205 244 270 274 272 278 271 267 261 257 272 276
323 322 322 323 325 329 333 337 342 348 360 333 335 317 300 286 294 285 279 279 302 307 304 294 293 276 277 299 339 320 312 310 311 288 191 221 240 229 258 280 287 271 271 268 279 256 263
318 319 320 322 322 326 331 332 335 340 340 322 315 316 301 289 297 294 305 307 302 288 291 292 290 290 279 284 316 300 278 266 268 255 262 253 251 254 263 271 268 272 284 254 294 298 309
313 315 315 316 320 328 331 330 327 323 320 309 309 306 295 291 296 294 293 305 310 302 282 272 266 268 278 291 291 280 260 258 253 254 249 228 239 260 263 252 273 273 281 182 294 278 49
311 312 313 316 319 330 328 325 332 323 314 297 308 304 288 286 269 308 318 301 290 285 284 278 279 287 248 264 258 257 250 252 246 237 225 228 211 232 234 225 243 246 95 156 175 237 47
311 312 312 310 311 328 336 326 324 330 318 303 298 297 286 287 279 292 311 320 308 301 303 302 360 316 298 243 248 253 258 253 254 249 252 222 218 217 234 238 253 254 154 189 228 130 91
313 312 310 305 297 309 327 325 313 319 321 309 287 291 284 280 284 279 289 293 288 277 275 283 315 272 276 253 258 269 257 256 260 258 204 226 210 223 228 237 234 166 141 265 95 132 133
310 309 306 303 291 289 302 310 306 306 306 311 295 283 283 268 271 291 285 273 261 259 270 280 282 296 289 302 358 310 264 262 260 251 242 201 199 233 162 175 126 137 135 141 95 32 41
Wind_Speed_850mb
52 51 49 47 46 46 47 48 47 44 41 38 34 29 26 23 18 15 13 12 11 11 10 8 10 10 10 14 20 10 10 18 24 30 26 25 30 29 30 35 35 30 38 42 40 31 39
52 51 49 49 48 48 50 51 50 48 44 41 37 33 26 22 19 15 13 10 7 9 8 8 10 11 12 25 1 10 11 16 22 26 23 27 22 26 37 31 33 34 29 38 49 32 40
51 51 50 51 50 50 52 53 53 53 49 44 40 36 28 22 17 13 9 7 1 7 8 9 11 11 18 31 6 12 27 22 25 22 24 22 27 22 26 32 29 36 33 30 37 36 36
49 50 52 52 52 52 53 55 57 58 55 46 41 37 29 23 16 9 4 4 1 4 7 9 10 11 18 8 17 21 25 24 23 24 25 18 21 27 36 36 45 23 31 33 33 45 44
46 49 52 53 53 53 55 56 58 61 61 49 43 37 30 22 13 6 3 2 1 4 7 9 9 9 22 18 22 27 30 28 24 24 26 21 20 29 32 29 26 28 29 38 40 42 37
47 47 51 53 53 54 56 58 60 62 64 54 47 38 31 21 10 6 4 5 5 5 8 12 15 17 27 19 16 27 29 30 27 22 27 26 21 26 27 26 29 32 34 30 34 31 21
49 50 51 52 53 54 57 59 60 62 63 58 49 42 29 18 15 12 10 13 6 6 21 25 19 23 4 9 10 16 30 28 31 26 28 36 24 28 35 36 39 33 40 37 40 32 24
50 51 51 52 53 54 57 60 60 61 61 58 47 40 24 19 17 15 15 10 10 15 24 37 41 39 32 15 20 22 28 33 36 31 35 29 36 33 36 38 40 38 33 34 36 43 38
50 51 51 51 52 55 57 60 61 61 60 57 50 36 19 11 7 7 7 14 16 18 16 22 19 22 15 27 35 27 31 38 35 35 36 37 36 40 46 28 33 36 33 35 41 43 41
51 52 52 52 52 54 57 60 62 63 60 57 50 40 27 11 10 11 10 22 18 12 10 23 18 15 15 15 19 31 34 32 36 40 36 34 41 42 41 32 29 36 40 36 42 37 29
52 53 53 53 54 55 58 61 63 64 61 55 50 41 27 21 10 17 22 24 17 9 10 27 23 11 6 22 5 25 30 38 34 37 35 40 39 40 39 39 36 41 33 39 41 38 35
52 54 54 54 55 58 60 63 66 68 65 58 49 42 25 15 14 19 26 23 12 11 11 13 13 11 27 26 22 11 12 32 34 38 40 43 55 46 44 39 35 33 40 37 37 34 34
51 54 55 54 55 57 61 64 67 70 69 62 50 40 24 10 8 26 23 13 12 13 6 10 5 3 13 17 12 17 21 24 24 27 30 40 43 44 49 44 40 35 35 24 32 30 33
50 53 55 55 55 57 61 65 68 71 72 70 53 31 18 10 14 24 16 15 16 20 2 12 3 15 22 25 21 26 16 28 27 36 30 28 33 26 15 30 26 40 28 11 19 31 32
51 54 56 56 57 59 62 67 71 73 75 74 60 21 13 2 16 19 18 14 20 18 12 13 18 23 29 30 17 24 26 24 28 21 8 19 32 22 17 19 22 19 25 29 12 38 32
53 56 56 56 57 59 62 68 75 75 76 70 59 25 0 6 21 18 14 24 39 5 10 15 21 19 25 29 19 22 22 18 19 13 6 16 34 22 10 15 22 21 16 16 7 7 11
55 57 57 57 57 59 62 67 74 80 75 66 34 22 2 19 21 22 18 30 11 17 8 12 20 28 31 25 25 32 27 28 5 4 10 12 19 35 35 29 29 21 11 6 6 10 8
56 57 57 56 56 58 61 66 71 78 80 64 24 14 27 23 20 22 22 6 13 18 21 15 17 24 29 32 34 33 28 29 14 3 12 4 8 21 29 31 31 4 8 2 8 5 6
58 57 56 56 56 59 62 66 68 64 65 69 31 26 5 19 11 18 30 18 25 22 24 18 22 20 22 29 30 27 23 8 6 3 7 14 9 19 28 34 14 12 13 20 6 6 17
58 55 55 56 56 58 62 66 62 53 47 43 17 10 21 28 8 14 24 26 29 32 33 21 31 38 31 33 27 25 31 10 12 2 17 11 18 24 25 33 11 15 25 19 25 15 17
56 55 55 55 56 58 62 62 57 48 32 26 11 12 18 13 24 38 31 28 38 38 43 32 25 26 32 33 31 35 35 33 20 22 10 10 22 27 30 33 33 31 25 26 33 33 30
57 57 56 55 57 60 59 54 50 43 26 14 20 18 30 44 42 34 23 28 35 34 34 31 31 28 34 36 31 36 36 31 29 32 26 23 19 24 33 34 29 32 36 37 38 38 43
54 53 52 54 57 55 50 46 42 37 24 12 20 27 25 22 33 28 27 30 27 36 29 29 30 33 34 25 31 40 37 31 21 18 25 22 22 22 28 33 34 26 33 28 33 38 28
51 50 53 54 54 50 45 42 38 31 23 16 19 28 28 23 29 28 43 45 34 35 39 45 42 39 32 36 34 44 42 34 31 26 26 19 23 18 23 26 32 31 33 16 22 26 25
50 50 48 44 44 44 42 41 36 27 21 19 18 26 29 22 38 42 42 38 41 41 38 47 47 49 49 43 23 23 27 34 40 41 36 29 23 19 17 20 30 34 16 10 11 9 11
46 43 41 38 34 37 37 34 35 26 20 15 15 24 29 32 26 34 42 41 30 29 31 47 45 40 33 23 20 36 30 34 32 45 43 38 29 21 19 7 14 14 10 4 6 12 8
42 41 38 35 31 29 32 22 28 31 22 21 20 25 23 40 45 38 35 28 41 33 21 43 22 27 20 18 24 30 34 40 40 33 16 30 26 30 25 23 16 28 21 12 18 5 15
40 38 36 34 30 27 26 23 22 27 25 22 23 22 26 33 49 58 42 46 44 43 27 40 31 18 19 24 20 27 29 32 34 40 29 27 21 27 29 32 32 9 18 16 17 16 8
40 38 36 35 34 30 28 29 29 26 28 29 28 22 26 30 42 56 58 55 53 45 42 31 32 39 7 9 11 13 21 15 28 26 20 19 14 11 10 5 17 18 27 10 10 1 8
Wind_Direction_850mb
24 23 24 24 23 21 17 13 10 5 3 358 352 342 338 339 330 317 315 303 280 257 252 254 226 227 259 261 261 220 189 190 186 185 213 219 226 230 236 245 239 244 252 264 270 267 278
22 25 26 25 23 21 17 15 11 6 1 356 353 345 335 334 332 321 318 317 288 220 219 222 215 221 242 257 258 212 195 201 188 193 216 215 225 230 269 287 270 254 247 256 267 260 262
25 26 25 23 24 23 18 17 14 9 2 357 353 349 341 331 331 324 322 336 317 187 201 204 206 219 255 245 214 241 186 195 190 207 218 223 254 289 262 267 264 271 270 271 264 261 257
26 25 23 23 24 23 20 18 16 12 7 3 357 353 349 341 331 320 325 345 70 179 197 197 203 224 256 202 223 212 197 205 213 220 231 245 259 267 275 277 286 266 266 265 259 242 234
22 22 22 24 25 23 19 18 15 13 12 10 4 358 355 350 341 336 347 7 318 237 215 203 199 238 259 230 223 211 208 212 216 228 235 249 266 255 262 253 261 255 255 256 257 247 230
21 21 20 22 24 21 18 17 15 13 14 13 10 5 1 2 21 38 15 341 306 257 211 211 222 245 244 249 209 207 209 215 219 229 234 235 253 245 245 251 249 258 246 246 245 274 188
22 21 20 20 21 20 17 15 15 13 13 13 13 10 13 34 48 43 3 330 311 225 218 235 286 235 136 216 177 214 208 212 219 223 231 230 243 244 250 245 249 263 276 292 293 299 259
19 18 17 17 16 16 14 12 12 12 11 11 10 14 33 43 57 39 20 317 9 323 290 254 250 252 261 235 230 220 200 211 222 227 221 241 238 249 266 272 278 275 284 283 276 282 285
15 13 13 13 12 11 10 8 8 9 7 4 5 6 11 34 58 29 7 357 330 320 269 251 221 230 225 222 237 242 194 215 226 228 246 245 251 248 238 251 268 277 265 274 278 287 274
11 9 9 8 7 6 5 5 4 4 4 1 355 354 352 324 345 335 311 337 331 313 273 180 194 191 198 215 223 226 207 220 230 250 240 251 257 252 268 242 246 272 283 250 264 267 270
8 6 5 4 2 2 1 1 1 1 360 358 351 344 347 351 343 3 327 329 315 297 271 163 136 134 209 228 74 198 226 212 242 247 246 262 270 258 252 256 281 274 269 284 280 279 249
4 3 2 1 359 357 358 358 358 358 356 354 349 339 332 334 305 319 323 316 311 237 238 141 141 205 196 210 244 176 223 235 255 249 259 273 278 278 283 288 263 263 260 262 278 265 263
360 360 359 358 357 355 355 355 356 356 354 351 347 336 318 290 315 324 320 298 245 243 121 164 170 224 292 284 218 240 255 211 235 247 248 255 255 254 259 260 270 264 276 257 251 243 247
355 356 356 355 354 354 353 352 353 355 354 349 348 336 340 280 314 321 324 264 254 299 22 100 317 269 262 273 262 269 249 270 244 231 251 280 288 319 308 281 271 289 298 332 296 288 277
353 353 353 353 352 352 352 351 351 353 355 349 350 350 298 250 320 326 299 247 245 344 20 358 319 279 264 251 208 290 263 263 286 18 252 286 277 9 11 351 343 309 269 308 324 283 296
349 350 350 350 350 350 351 351 350 351 354 354 345 359 209 276 323 316 272 259 291 61 358 307 281 303 290 297 224 206 263 288 263 160 252 289 295 284 283 242 263 254 352 318 286 0 247
346 346 347 347 348 349 350 351 351 348 353 355 352 314 26 328 305 270 253 269 331 68 21 310 288 285 290 283 288 292 296 286 167 256 195 280 287 284 292 274 303 301 278 340 286 286 303
343 343 343 344 345 346 347 350 352 349 349 360 353 306 338 341 296 241 251 15 353 311 300 248 282 281 282 292 293 286 276 278 68 10 278 45 317 291 283 307 308 287 293 80 268 233 163
340 341 341 341 342 343 345 347 351 353 352 347 326 300 255 348 317 337 345 328 317 293 286 277 272 266 281 283 286 276 279 260 114 266 24 352 244 276 273 258 36 353 291 224 194 64 255
336 337 338 338 339 340 341 343 347 354 350 343 312 313 345 327 218 338 339 313 298 300 289 268 291 286 283 277 264 269 272 243 186 119 74 25 278 264 268 285 163 221 221 240 193 208 254
332 333 333 333 334 336 338 340 345 351 354 342 296 332 340 300 318 331 305 292 289 288 284 268 258 275 269 270 263 265 264 247 184 150 183 191 250 262 267 271 270 278 281 261 227 231 242
329 329 329 329 330 332 335 339 344 350 6 335 329 342 324 299 289 286 282 279 281 286 294 288 291 285 279 277 269 266 276 275 257 180 199 205 244 270 274 272 278 271 267 261 257 272 276
323 322 322 323 325 329 333 337 342 348 360 333 335 317 300 286 294 285 279 279 302 307 304 294 293 276 277 299 339 320 312 310 311 288 191 221 240 229 258 280 287 271 271 268 279 256 263
318 319 320 322 322 326 331 332 335 340 340 322 315 316 301 289 297 294 305 307 302 288 291 292 290 290 279 284 316 300 278 266 268 255 262 253 251 254 263 271 268 272 284 254 294 298 309
313 315 315 316 320 328 331 330 327 323 320 309 309 306 295 291 296 294 293 305 310 302 282 272 266 268 278 291 291 280 260 258 253 254 249 228 239 260 263 252 273 273 281 182 294 278 49
311 312 313 316 319 330 328 325 332 323 314 297 308 304 288 286 269 308 318 301 290 285 284 278 279 287 248 264 258 257 250 252 246 237 225 228 211 232 234 225 243 246 95 156 175 237 47
311 312 312 310 311 328 336 326 324 330 318 303 298 297 286 287 279 292 311 320 308 301 303 302 360 316 298 243 248 253 258 253 254 249 252 222 218 217 234 238 253 254 154 189 228 130 91
313 312 310 305 297 309 327 325 313 319 321 309 287 291 284 280 284 279 289 293 288 277 275 283 315 272 276 253 258 269 257 256 260 258 204 226 210 223 228 237 234 166 141 265 95 132 133
310 309 306 303 291 289 302 310 306 306 306 311 295 283 283 268 271 291 285 273 261 259 270 280 282 296 289 302 358 310 264 262 260 251 242 201 199 233 162 175 126 137 135 141 95 32 41